AIQ02 VTBD-WMKP

Flight info

Callsign AIQ02
Flight time N/A
Altitude 37000
Route KASNI3A KASNI M757 NULBO/N0443F390 M757 VAS DCT LUNTU
Aircraft A320/M-SDE3FGHIRWY/LB1

Departure

Time 2026-04-27 14:54
Airport Don Mueang International Airport (VTBD)

Arrival

Time N/A
Airport Penang International Airport (WMKP)
Time Latitude Longitude Altitude Speed Heading
2026-04-27 14:37 13.91846 100.60437 17 ft 0 kts 208°
2026-04-27 14:43 13.91846 100.60438 17 ft 1 kts 208°
2026-04-27 14:44 13.91860 100.60446 19 ft 3 kts 212°
2026-04-27 14:44 13.91877 100.60458 20 ft 3 kts 220°
2026-04-27 14:44 13.91891 100.60472 20 ft 3 kts 237°
2026-04-27 14:44 13.91899 100.60489 21 ft 3 kts 274°
2026-04-27 14:45 13.91896 100.60500 22 ft 1 kts 299°
2026-04-27 14:45 13.91888 100.60516 20 ft 3 kts 306°
2026-04-27 14:45 13.91875 100.60530 20 ft 3 kts 335°
2026-04-27 14:45 13.91862 100.60533 20 ft 2 kts 27°
2026-04-27 14:46 13.91851 100.60527 20 ft 3 kts 29°
2026-04-27 14:46 13.91834 100.60517 20 ft 3 kts 28°
2026-04-27 14:46 13.91825 100.60512 19 ft 0 kts 28°
2026-04-27 14:49 13.91841 100.60521 20 ft 9 kts 28°
2026-04-27 14:49 13.91910 100.60560 17 ft 11 kts 28°
2026-04-27 14:49 13.91976 100.60597 17 ft 10 kts 28°
2026-04-27 14:50 13.92037 100.60631 18 ft 9 kts 28°
2026-04-27 14:50 13.92093 100.60662 18 ft 9 kts 28°
2026-04-27 14:50 13.92145 100.60691 18 ft 10 kts 29°
2026-04-27 14:50 13.92221 100.60735 18 ft 15 kts 28°
2026-04-27 14:51 13.92326 100.60793 18 ft 20 kts 28°
2026-04-27 14:51 13.92463 100.60870 18 ft 25 kts 29°
2026-04-27 14:51 13.92602 100.60948 18 ft 15 kts 28°
2026-04-27 14:51 13.92683 100.61007 19 ft 13 kts 66°
2026-04-27 14:52 13.92659 100.61076 17 ft 8 kts 120°
2026-04-27 14:52 13.92632 100.61125 17 ft 8 kts 117°
2026-04-27 14:52 13.92606 100.61175 16 ft 9 kts 118°
2026-04-27 14:52 13.92548 100.61192 17 ft 11 kts 202°
2026-04-27 14:53 13.92543 100.61189 16 ft 1 kts 209°
2026-04-27 14:53 13.92388 100.61101 17 ft 63 kts 208°
2026-04-27 14:53 13.91803 100.60775 16 ft 128 kts 208°
2026-04-27 14:53 13.90885 100.60289 304 ft 153 kts 205°
2026-04-27 14:54 13.89939 100.59777 998 ft 154 kts 206°
2026-04-27 14:54 13.88979 100.59229 1568 ft 165 kts 209°
2026-04-27 14:54 13.88198 100.58250 1872 ft 195 kts 242°
2026-04-27 14:54 13.87644 100.56896 2244 ft 219 kts 243°
2026-04-27 14:55 13.87035 100.55412 2629 ft 242 kts 243°
2026-04-27 14:55 13.86344 100.53744 3159 ft 259 kts 244°
2026-04-27 14:55 13.85627 100.52019 3998 ft 265 kts 245°
2026-04-27 14:55 13.84891 100.50261 4887 ft 269 kts 245°
2026-04-27 14:56 13.84112 100.48497 5768 ft 272 kts 239°
2026-04-27 14:56 13.82936 100.46983 6564 ft 277 kts 227°
2026-04-27 14:56 13.81599 100.45523 7403 ft 280 kts 226°
2026-04-27 14:56 13.80238 100.44061 8245 ft 284 kts 226°
2026-04-27 14:57 13.78742 100.42704 9034 ft 290 kts 212°
2026-04-27 14:57 13.76872 100.41967 9798 ft 297 kts 189°
2026-04-27 14:57 13.74782 100.42041 10323 ft 312 kts 165°
2026-04-27 14:57 13.72657 100.42819 10609 ft 333 kts 159°
2026-04-27 14:58 13.70460 100.43692 11185 ft 342 kts 159°
2026-04-27 14:58 13.68217 100.44585 11889 ft 346 kts 159°
2026-04-27 14:58 13.65982 100.45467 12603 ft 350 kts 159°
2026-04-27 14:58 13.63690 100.46362 13313 ft 354 kts 160°
2026-04-27 14:59 13.61364 100.47260 13951 ft 358 kts 159°
2026-04-27 14:59 13.59021 100.48165 14586 ft 361 kts 159°
2026-04-27 14:59 13.56661 100.49079 15182 ft 364 kts 160°
2026-04-27 14:59 13.54271 100.50004 15797 ft 367 kts 160°
2026-04-27 15:00 13.51862 100.50936 16361 ft 372 kts 160°
2026-04-27 15:00 13.49462 100.51863 16934 ft 375 kts 160°
2026-04-27 15:00 13.47002 100.52813 17489 ft 379 kts 160°
2026-04-27 15:00 13.44518 100.53770 18096 ft 381 kts 160°
2026-04-27 15:01 13.42014 100.54735 18578 ft 385 kts 161°
2026-04-27 15:01 13.39525 100.55696 19017 ft 389 kts 160°
2026-04-27 15:01 13.36980 100.56678 19514 ft 391 kts 160°
2026-04-27 15:01 13.34408 100.57670 19991 ft 395 kts 160°
2026-04-27 15:02 13.31823 100.58667 20474 ft 398 kts 160°
2026-04-27 15:02 13.29250 100.59663 20941 ft 401 kts 160°
2026-04-27 15:02 13.26614 100.60681 21416 ft 405 kts 160°
2026-04-27 15:02 13.23969 100.61699 21900 ft 408 kts 160°
2026-04-27 15:03 13.21294 100.62728 22375 ft 412 kts 160°
2026-04-27 15:03 13.18589 100.63769 22847 ft 415 kts 160°
2026-04-27 15:03 13.15906 100.64802 23310 ft 419 kts 160°
2026-04-27 15:03 13.13162 100.65858 23714 ft 422 kts 160°
2026-04-27 15:04 13.10385 100.66908 24109 ft 425 kts 163°
2026-04-27 15:04 13.07536 100.67591 24491 ft 426 kts 173°
2026-04-27 15:04 13.04578 100.67757 24883 ft 426 kts 183°
2026-04-27 15:04 13.01592 100.67671 25264 ft 429 kts 183°
2026-04-27 15:05 12.98597 100.67583 25641 ft 431 kts 183°
2026-04-27 15:05 12.95622 100.67498 26009 ft 433 kts 183°
2026-04-27 15:05 12.92597 100.67418 26381 ft 436 kts 183°
2026-04-27 15:05 12.89554 100.67341 26730 ft 438 kts 182°
2026-04-27 15:06 12.86493 100.67266 27080 ft 441 kts 182°
2026-04-27 15:06 12.83414 100.67188 27422 ft 443 kts 183°
2026-04-27 15:06 12.80320 100.67107 27767 ft 445 kts 183°
2026-04-27 15:06 12.77214 100.67025 28104 ft 447 kts 183°
2026-04-27 15:07 12.74088 100.66940 28432 ft 450 kts 183°
2026-04-27 15:07 12.70988 100.66857 28752 ft 452 kts 183°
2026-04-27 15:07 12.67833 100.66775 29082 ft 454 kts 183°
2026-04-27 15:07 12.64659 100.66696 29398 ft 456 kts 183°
2026-04-27 15:08 12.61465 100.66616 29708 ft 458 kts 183°
2026-04-27 15:08 12.58266 100.66533 30009 ft 460 kts 183°
2026-04-27 15:08 12.55084 100.66450 30256 ft 462 kts 183°
2026-04-27 15:08 12.51861 100.66365 30509 ft 464 kts 182°
2026-04-27 15:09 12.48616 100.66278 30782 ft 465 kts 183°
2026-04-27 15:09 12.45411 100.66192 31046 ft 466 kts 182°
2026-04-27 15:09 12.42158 100.66108 31304 ft 468 kts 182°
2026-04-27 15:09 12.38896 100.66025 31564 ft 468 kts 182°
2026-04-27 15:10 12.35631 100.65944 31926 ft 467 kts 183°
2026-04-27 15:10 12.32390 100.65862 32308 ft 465 kts 183°
2026-04-27 15:10 12.29202 100.65780 32692 ft 462 kts 183°
2026-04-27 15:10 12.25990 100.65693 33084 ft 460 kts 183°
2026-04-27 15:11 12.22787 100.65605 33474 ft 458 kts 183°
2026-04-27 15:11 12.19599 100.65520 33880 ft 456 kts 182°
2026-04-27 15:11 12.16422 100.65435 34196 ft 455 kts 182°
2026-04-27 15:11 12.13255 100.65352 34491 ft 455 kts 183°
2026-04-27 15:12 12.10091 100.65269 34758 ft 455 kts 183°
2026-04-27 15:12 12.06920 100.65187 34844 ft 454 kts 182°
2026-04-27 15:12 12.00624 100.65025 34868 ft 454 kts 182°
2026-04-27 15:13 11.94303 100.64875 34865 ft 454 kts 182°
2026-04-27 15:13 11.87975 100.64717 34871 ft 454 kts 183°
2026-04-27 15:14 11.81704 100.64549 34869 ft 454 kts 182°
2026-04-27 15:14 11.75372 100.64390 34869 ft 454 kts 182°
2026-04-27 15:15 11.69052 100.64229 34867 ft 453 kts 182°
2026-04-27 15:15 11.62773 100.64070 34868 ft 453 kts 182°
2026-04-27 15:16 11.56455 100.63911 34869 ft 454 kts 182°
2026-04-27 15:16 11.50168 100.63748 34869 ft 454 kts 182°
2026-04-27 15:17 11.43846 100.63589 34868 ft 454 kts 182°
2026-04-27 15:17 11.37524 100.63441 34872 ft 454 kts 182°
2026-04-27 15:18 11.31251 100.63284 34872 ft 454 kts 182°
2026-04-27 15:18 11.24924 100.63118 34871 ft 454 kts 182°
2026-04-27 15:19 11.18636 100.62954 34871 ft 454 kts 182°
2026-04-27 15:19 11.12308 100.62797 34873 ft 454 kts 182°
2026-04-27 15:20 11.06021 100.62643 34872 ft 453 kts 182°
2026-04-27 15:20 10.99726 100.62486 34874 ft 453 kts 182°
2026-04-27 15:21 10.93409 100.62328 34874 ft 453 kts 182°
2026-04-27 15:21 10.87088 100.62169 34873 ft 453 kts 182°
2026-04-27 15:22 10.80801 100.62001 34874 ft 453 kts 182°
2026-04-27 15:22 10.74486 100.61842 34873 ft 453 kts 182°
2026-04-27 15:23 10.68182 100.61696 34873 ft 452 kts 182°
2026-04-27 15:23 10.61916 100.61541 34874 ft 452 kts 183°
2026-04-27 15:24 10.55606 100.61380 34874 ft 452 kts 182°
2026-04-27 15:24 10.49313 100.61219 34874 ft 452 kts 182°
2026-04-27 15:25 10.43040 100.61068 34873 ft 452 kts 182°
2026-04-27 15:25 10.36785 100.60919 34873 ft 452 kts 182°
2026-04-27 15:26 10.30495 100.60764 34873 ft 451 kts 183°
2026-04-27 15:26 10.25264 100.60629 34873 ft 451 kts 182°
2026-04-27 15:27 10.19015 100.60472 34875 ft 451 kts 182°
2026-04-27 15:27 10.12727 100.60324 34874 ft 451 kts 182°
2026-04-27 15:28 10.06439 100.60175 34875 ft 451 kts 182°
2026-04-27 15:28 10.00201 100.60022 34873 ft 450 kts 182°
2026-04-27 15:29 9.93930 100.59865 34882 ft 450 kts 182°
2026-04-27 15:29 9.87655 100.59710 34883 ft 451 kts 182°
2026-04-27 15:30 9.81371 100.59557 34890 ft 450 kts 182°
2026-04-27 15:30 9.75135 100.59409 34891 ft 450 kts 182°
2026-04-27 15:31 9.68856 100.59261 34887 ft 450 kts 182°
2026-04-27 15:31 9.62572 100.59108 34887 ft 451 kts 182°
2026-04-27 15:32 9.56316 100.58952 34886 ft 451 kts 182°
2026-04-27 15:32 9.50051 100.58798 34890 ft 451 kts 182°
2026-04-27 15:33 9.43757 100.58645 34890 ft 451 kts 182°
2026-04-27 15:33 9.37462 100.58492 34891 ft 451 kts 182°
2026-04-27 15:34 9.31213 100.58347 34890 ft 451 kts 182°
2026-04-27 15:34 9.24912 100.58200 34893 ft 452 kts 181°
2026-04-27 15:35 9.18648 100.58051 34886 ft 452 kts 182°
2026-04-27 15:35 9.12358 100.57904 34889 ft 452 kts 182°
2026-04-27 15:36 9.06072 100.57754 34878 ft 452 kts 181°
2026-04-27 15:36 8.99813 100.57597 34878 ft 452 kts 181°
2026-04-27 15:37 8.93519 100.57447 34887 ft 451 kts 181°
2026-04-27 15:37 8.87224 100.57298 34881 ft 452 kts 181°
2026-04-27 15:38 8.80952 100.57157 34882 ft 453 kts 181°
2026-04-27 15:38 8.74630 100.57017 34883 ft 453 kts 181°
2026-04-27 15:39 8.68352 100.56871 34883 ft 453 kts 181°
2026-04-27 15:39 8.62027 100.56719 34884 ft 453 kts 181°
2026-04-27 15:40 8.55758 100.56563 34883 ft 453 kts 181°
2026-04-27 15:40 8.49446 100.56414 34884 ft 453 kts 181°
2026-04-27 15:41 8.43145 100.56265 34879 ft 452 kts 181°
2026-04-27 15:41 8.36875 100.56125 34884 ft 452 kts 181°
2026-04-27 15:42 8.30563 100.55981 34883 ft 452 kts 181°
2026-04-27 15:42 8.24263 100.55832 34878 ft 452 kts 181°
2026-04-27 15:43 8.18007 100.55689 34889 ft 452 kts 181°
2026-04-27 15:43 8.11705 100.55541 34881 ft 452 kts 181°
2026-04-27 15:44 8.05410 100.55393 34881 ft 452 kts 181°
2026-04-27 15:44 7.99143 100.55249 34889 ft 452 kts 181°
2026-04-27 15:45 7.92837 100.55108 34872 ft 452 kts 181°
2026-04-27 15:45 7.86576 100.54965 34884 ft 452 kts 181°
2026-04-27 15:46 7.80260 100.54811 34881 ft 452 kts 181°
2026-04-27 15:46 7.73994 100.54665 34884 ft 452 kts 181°
2026-04-27 15:47 7.67672 100.54520 34884 ft 452 kts 181°
2026-04-27 15:47 7.61414 100.54376 34885 ft 452 kts 181°
2026-04-27 15:48 7.55107 100.54231 34886 ft 452 kts 181°
2026-04-27 15:49 7.45654 100.54018 34888 ft 452 kts 181°
2026-04-27 15:49 7.39400 100.53900 34888 ft 452 kts 180°
2026-04-27 15:50 7.33102 100.53791 34888 ft 452 kts 180°
2026-04-27 15:50 7.26803 100.53683 34886 ft 452 kts 180°
2026-04-27 15:51 7.20511 100.53572 34886 ft 452 kts 181°
2026-04-27 15:51 7.14326 100.53453 34581 ft 440 kts 180°
2026-04-27 15:51 7.11274 100.53393 34354 ft 437 kts 180°
2026-04-27 15:52 7.08233 100.53333 34136 ft 435 kts 180°
2026-04-27 15:52 7.05203 100.53276 33910 ft 434 kts 180°
2026-04-27 15:52 7.02184 100.53186 33681 ft 432 kts 185°
2026-04-27 15:52 6.99254 100.52758 33333 ft 429 kts 188°
2026-04-27 15:53 6.96304 100.52283 32801 ft 426 kts 188°
2026-04-27 15:53 6.93381 100.51810 32282 ft 424 kts 188°
2026-04-27 15:53 6.90469 100.51338 31771 ft 422 kts 188°
2026-04-27 15:53 6.87561 100.50863 31260 ft 420 kts 187°
2026-04-27 15:54 6.84711 100.50397 30768 ft 418 kts 187°
2026-04-27 15:54 6.81836 100.49929 30273 ft 417 kts 187°
2026-04-27 15:54 6.78962 100.49462 29760 ft 415 kts 187°
2026-04-27 15:54 6.76151 100.49008 29268 ft 412 kts 187°
2026-04-27 15:55 6.73319 100.48551 28811 ft 409 kts 187°
2026-04-27 15:55 6.71460 100.48250 28511 ft 407 kts 187°
2026-04-27 15:55 6.67739 100.47648 27903 ft 403 kts 187°
2026-04-27 15:55 6.64975 100.47202 27446 ft 400 kts 187°
2026-04-27 15:56 6.62232 100.46760 26980 ft 397 kts 187°
2026-04-27 15:56 6.59537 100.46326 26528 ft 395 kts 187°
2026-04-27 15:56 6.56821 100.45887 26040 ft 394 kts 187°
2026-04-27 15:56 6.54118 100.45447 25561 ft 393 kts 187°
2026-04-27 15:57 6.51422 100.45008 25065 ft 392 kts 187°
2026-04-27 15:57 6.48726 100.44571 24558 ft 392 kts 187°
2026-04-27 15:57 6.46032 100.44134 24049 ft 391 kts 187°
2026-04-27 15:57 6.43362 100.43703 23534 ft 392 kts 187°
2026-04-27 15:58 6.40660 100.43268 22953 ft 391 kts 187°
2026-04-27 15:58 6.37981 100.42837 22444 ft 389 kts 187°
2026-04-27 15:58 6.35319 100.42407 21950 ft 386 kts 187°
2026-04-27 15:58 6.32693 100.41982 21481 ft 384 kts 187°
2026-04-27 15:59 6.30051 100.41556 20996 ft 382 kts 187°
2026-04-27 15:59 6.27417 100.41131 20507 ft 381 kts 187°
2026-04-27 15:59 6.24840 100.40715 20038 ft 379 kts 187°
2026-04-27 15:59 6.22239 100.40298 19588 ft 377 kts 187°
2026-04-27 16:00 6.19655 100.39882 19115 ft 375 kts 187°
2026-04-27 16:00 6.17961 100.39608 18802 ft 367 kts 187°
2026-04-27 16:00 6.14645 100.39085 18182 ft 357 kts 186°
2026-04-27 16:00 6.12212 100.38715 17692 ft 357 kts 186°
2026-04-27 16:01 6.09757 100.38345 17247 ft 355 kts 186°
2026-04-27 16:01 6.07309 100.37979 16809 ft 353 kts 186°
2026-04-27 16:01 6.04885 100.37614 16375 ft 351 kts 186°
2026-04-27 16:01 6.02501 100.37254 15956 ft 350 kts 187°
2026-04-27 16:02 6.00094 100.36890 15524 ft 348 kts 187°
2026-04-27 16:02 5.97698 100.36528 15106 ft 347 kts 186°
2026-04-27 16:02 5.95312 100.36168 14687 ft 346 kts 187°
2026-04-27 16:02 5.92933 100.35808 14269 ft 344 kts 187°
2026-04-27 16:03 5.90591 100.35453 13879 ft 342 kts 187°
2026-04-27 16:03 5.88239 100.35096 13443 ft 341 kts 187°
2026-04-27 16:03 5.85910 100.34742 13018 ft 338 kts 187°
2026-04-27 16:03 5.83606 100.34391 12559 ft 327 kts 187°
2026-04-27 16:04 5.81403 100.34055 12161 ft 313 kts 187°
2026-04-27 16:04 5.79293 100.33734 11769 ft 300 kts 187°
2026-04-27 16:04 5.77262 100.33424 11395 ft 289 kts 187°
2026-04-27 16:04 5.75331 100.33131 11031 ft 279 kts 187°
2026-04-27 16:05 5.73412 100.32841 10762 ft 278 kts 187°
2026-04-27 16:05 5.71497 100.32561 10432 ft 277 kts 184°
2026-04-27 16:05 5.69580 100.32586 10064 ft 273 kts 170°
2026-04-27 16:05 5.67760 100.33061 9687 ft 274 kts 157°
2026-04-27 16:06 5.66048 100.33900 9274 ft 273 kts 152°
2026-04-27 16:06 5.64351 100.34774 8876 ft 273 kts 152°
2026-04-27 16:06 5.62656 100.35638 8482 ft 273 kts 152°
2026-04-27 16:06 5.60981 100.36489 8094 ft 273 kts 152°
2026-04-27 16:07 5.59283 100.37352 7685 ft 273 kts 152°
2026-04-27 16:07 5.57580 100.38217 7270 ft 273 kts 152°
2026-04-27 16:07 5.55905 100.39071 6849 ft 273 kts 152°
2026-04-27 16:07 5.54202 100.39938 6421 ft 274 kts 152°
2026-04-27 16:08 5.52492 100.40809 5955 ft 275 kts 152°
2026-04-27 16:08 5.50782 100.41682 5500 ft 275 kts 152°
2026-04-27 16:08 5.49073 100.42552 5044 ft 275 kts 154°
2026-04-27 16:08 5.47240 100.42978 4585 ft 277 kts 183°
2026-04-27 16:09 5.45431 100.42356 4106 ft 278 kts 211°
2026-04-27 16:09 5.42501 100.39815 3145 ft 274 kts 226°
2026-04-27 16:09 5.41256 100.38514 2681 ft 248 kts 226°
2026-04-27 16:10 5.39050 100.36285 2072 ft 202 kts 224°
2026-04-27 16:10 5.37161 100.34497 1633 ft 180 kts 223°
2026-04-27 16:11 5.36246 100.33653 1396 ft 177 kts 222°
2026-04-27 16:11 5.35554 100.33017 1246 ft 176 kts 222°
2026-04-27 16:12 5.34358 100.31946 984 ft 177 kts 221°
2026-04-27 16:13 5.33442 100.31109 756 ft 178 kts 222°
2026-04-27 16:13 5.31638 100.29404 313 ft 177 kts 222°
2026-04-27 16:13 5.30710 100.28601 60 ft 178 kts 218°